"Pseudo-MPEC" for P11JIcy

Created 2023 Sep 27 1:22:11 UT using Find_Orb

Click here for an explanation of pseudo-MPECs

 
 Astrometry: 
     P11JIcy* C2023 09 169)sA2-RxqAJ'R6GF'2wcdAstrometrysah]`+qD!j?4bM@`x7[#4F51
     P11JIcy  C2023 09 169e4tRe78xredacted;_v9jndiclicko.b]p5$0hokEgYhere^-G2F51
     P11JIcy  C2023 09 16_2IforU%:!;_o%Ng6]ZGHOexplanationlmp+#M=b:@?B2t7qipyF51

Station data:
(F51) Pan-STARRS 1, Haleakala  (N20.707234 W156.255910)  US/Hawaii.
   Observers J. Bulger, T. Lowe, A. Schultz, M. Willman. Measurers K.
   Chambers, S. Chastel, T. de Boer, L. Denneau, J. Fairlamb, H. Flewelling,
   M. Huber, C.-C. Lin, E. Magnier, Y. Ramanjooloo, R. Wainscoat, R. Weryk.
   1.8-m Ritchey-Chrétien + CCD.

Orbital elements:  P11JIcy
   Perihelion 2023 Oct 29.27052 +/- 49.6 TT =  6:29:33 (JD 2460246.77052)
Epoch 2023 Sep 16.0 TT = JDT 2460203.5   Earth MOID: 0.3539   Ma: 0.0627
M 349.55089279 +/- 17               (J2000 ecliptic)             AutoNEOCP
n   0.24148325 +/- 0.238            Peri.   77.44692 +/- 90
a   2.55394397 +/- 1.68             Node   306.33817 +/- 47
e   0.4750777 +/- 0.248             Incl.    4.34733 +/- 3.4
P   4.08                   H 23.01  G  0.15   U 11.8  SR
q 1.34062211 +/- 0.411    Q 3.76726583 +/- 86.3
From 3 observations 2023 Sept. 16 (39.4 min); mean residual 0".03
Residuals in arcseconds: 
230916 F51  .02+  .03-    230916 F51  .03-  .05+    230916 F51  .02+  .03-    

Ephemerides (geocentric):
Date (UTC) HH   RA             Dec           delta  r     elong  mag " sig PA
---- --------  ------------   ------------  ------ ------ -----  --- --------
2023 09 27 01  22 59 30.420   +06 52 07.86  .39314 1.3802 161.0 22.5  42d  93
2023 09 27 02  22 59 30.252   +06 52 27.10  .39311 1.3801 161.0 22.5  42d  93
2023 09 27 03  22 59 30.087   +06 52 46.32  .39307 1.3800 161.0 22.5  42d  93
2023 09 27 04  22 59 29.925   +06 53 05.53  .39304 1.3799 160.9 22.5  42d  93
2023 09 27 05  22 59 29.767   +06 53 24.73  .39300 1.3798 160.9 22.5  42d  93
2023 09 27 06  22 59 29.612   +06 53 43.92  .39297 1.3797 160.9 22.5  42d  93
2023 09 27 07  22 59 29.461   +06 54 03.10  .39294 1.3796 160.8 22.5  42d  93
2023 09 27 08  22 59 29.314   +06 54 22.27  .39290 1.3795 160.8 22.5  42d  93
2023 09 27 09  22 59 29.170   +06 54 41.43  .39287 1.3794 160.8 22.5  42d  93
2023 09 27 10  22 59 29.029   +06 55 00.57  .39283 1.3793 160.7 22.5  42d  93
2023 09 27 11  22 59 28.892   +06 55 19.71  .39280 1.3792 160.7 22.5  42d  93
2023 09 27 12  22 59 28.758   +06 55 38.83  .39277 1.3791 160.7 22.5  43d  93
2023 09 27 13  22 59 28.628   +06 55 57.95  .39274 1.3791 160.6 22.5  43d  93
2023 09 27 14  22 59 28.502   +06 56 17.05  .39270 1.3790 160.6 22.5  43d  93
2023 09 27 15  22 59 28.379   +06 56 36.14  .39267 1.3789 160.6 22.5  43d  93
2023 09 27 16  22 59 28.260   +06 56 55.23  .39264 1.3788 160.5 22.5  43d  93
2023 09 27 17  22 59 28.144   +06 57 14.30  .39261 1.3787 160.5 22.5  43d  93
2023 09 27 18  22 59 28.032   +06 57 33.36  .39257 1.3786 160.5 22.5  43d  93
2023 09 27 19  22 59 27.923   +06 57 52.41  .39254 1.3785 160.4 22.5  44d  93
2023 09 27 20  22 59 27.818   +06 58 11.45  .39251 1.3784 160.4 22.5  44d  93
2023 09 27 21  22 59 27.716   +06 58 30.47  .39248 1.3783 160.4 22.5  44d  93
2023 09 27 22  22 59 27.618   +06 58 49.49  .39245 1.3782 160.3 22.5  44d  93
2023 09 27 23  22 59 27.524   +06 59 08.50  .39242 1.3781 160.3 22.5  44d  92
2023 09 28 00  22 59 27.433   +06 59 27.49  .39239 1.3780 160.3 22.5  44d  92
2023 09 28 01  22 59 27.346   +06 59 46.48  .39236 1.3779 160.2 22.5  44d  92
2023 09 28 02  22 59 27.263   +07 00 05.45  .39233 1.3778 160.2 22.5  44d  92
2023 09 28 03  22 59 27.183   +07 00 24.42  .39230 1.3777 160.2 22.5  44d  92
2023 09 28 04  22 59 27.106   +07 00 43.37  .39227 1.3776 160.1 22.5  44d  92
2023 09 28 05  22 59 27.034   +07 01 02.31  .39224 1.3775 160.1 22.5  44d  92
2023 09 28 06  22 59 26.965   +07 01 21.25  .39221 1.3774 160.1 22.5  45d  92
2023 09 28 07  22 59 26.899   +07 01 40.17  .39218 1.3773 160.0 22.5  45d  92
2023 09 28 08  22 59 26.838   +07 01 59.08  .39215 1.3772 160.0 22.5  45d  92
2023 09 28 09  22 59 26.780   +07 02 17.98  .39212 1.3771 160.0 22.5  45d  92
2023 09 28 10  22 59 26.725   +07 02 36.87  .39209 1.3770 159.9 22.5  45d  92
2023 09 28 11  22 59 26.675   +07 02 55.74  .39207 1.3769 159.9 22.5  45d  92
2023 09 28 12  22 59 26.628   +07 03 14.61  .39204 1.3768 159.9 22.5  45d  92
2023 09 28 13  22 59 26.584   +07 03 33.47  .39201 1.3767 159.8 22.5  45d  92
2023 09 28 14  22 59 26.545   +07 03 52.32  .39198 1.3766 159.8 22.5  45d  92
2023 09 28 15  22 59 26.509   +07 04 11.15  .39196 1.3765 159.8 22.5  45d  92
2023 09 28 16  22 59 26.476   +07 04 29.98  .39193 1.3764 159.7 22.5  45d  92
2023 09 28 17  22 59 26.448   +07 04 48.79  .39190 1.3763 159.7 22.5  45d  92
2023 09 28 18  22 59 26.423   +07 05 07.60  .39188 1.3762 159.7 22.5  45d  92
2023 09 28 19  22 59 26.402   +07 05 26.39  .39185 1.3761 159.6 22.5  45d  92
2023 09 28 20  22 59 26.385   +07 05 45.17  .39182 1.3761 159.6 22.5  45d  92
2023 09 28 21  22 59 26.371   +07 06 03.94  .39180 1.3760 159.6 22.5  45d  92
2023 09 28 22  22 59 26.361   +07 06 22.71  .39177 1.3759 159.5 22.5  45d  91
2023 09 28 23  22 59 26.355   +07 06 41.46  .39175 1.3758 159.5 22.5  45d  91
2023 09 29 00  22 59 26.353   +07 07 00.20  .39172 1.3757 159.5 22.5  45d  91